Date,TemperatureHighF,TemperatureAvgF,TemperatureLowF,DewpointHighF,DewpointAvgF,DewpointLowF,HumidityHigh,HumidityAvg,HumidityLow,PressureMaxIn,PressureMinIn,WindSpeedMaxMPH,WindSpeedAvgMPH,GustSpeedMaxMPH,PrecipitationSumIn
2013-1-1,68.2,53.8,46.9,59.9,54.2,44.4,74,61,43,30.16,29.87,15,-1,19,0.87
2013-1-2,47.1,43.7,42.1,51.6,43.9,39.9,57,41,35,30.27,30.14,15,-6,16,0.00
2013-1-3,55.8,48.3,39.9,41.7,38.8,36.7,38,33,31,30.38,30.25,14,-1,18,0.00
2013-1-4,49.8,48.1,46.0,40.1,39.0,37.6,36,34,32,30.46,30.31,10,-1,18,0.00
2013-1-5,46.9,45.9,43.9,48.6,44.0,37.6,51,41,32,30.34,30.21,9,-12,11,0.35
2013-1-6,60.4,51.8,43.7,47.3,44.6,40.6,48,42,37,30.32,30.21,13,-6,18,0.00
2013-1-7,59.4,52.3,42.6,48.2,44.3,40.3,50,42,36,30.27,30.05,9,-2,13,0.00
2013-1-8,64.4,60.0,53.6,60.8,53.2,42.6,75,59,40,30.06,29.85,13,-6,18,0.09
2013-1-9,66.9,64.5,61.2,61.0,57.5,49.6,76,68,52,29.99,29.75,21,-7,27,1.03
2013-1-10,70.9,63.1,54.9,60.8,56.3,48.4,75,65,50,30.07,29.95,13,-14,18,0.00
2013-1-11,73.6,63.1,52.3,60.4,54.5,45.7,74,62,44,30.03,29.85,10,-7,15,0.00
2013-1-12,74.8,73.0,66.2,61.7,57.7,50.4,77,68,54,29.86,29.67,19,2,26,0.00
2013-1-13,72.7,51.7,43.0,61.2,51.7,43.5,78,56,41,30.09,29.74,16,-5,19,0.00
2013-1-14,47.1,44.2,41.5,48.2,44.7,41.2,50,42,38,30.18,30.03,15,0,24,0.00
2013-1-15,43.3,39.4,37.2,45.3,42.0,38.8,45,38,34,30.12,29.99,14,-6,18,0.01
2013-1-16,55.6,45.7,37.0,40.3,36.0,32.5,36,30,26,30.25,30.10,18,-2,19,0.00
2013-1-17,66.0,53.0,35.4,38.8,35.5,33.4,34,30,27,30.43,30.24,11,-11,15,0.00
2013-1-18,63.7,53.3,42.8,41.5,39.7,37.4,39,36,32,30.50,30.34,9,-8,11,0.00
2013-1-19,70.7,56.9,43.2,48.4,45.8,40.6,49,46,37,30.34,30.16,11,-7,15,0.00
2013-1-20,73.9,60.0,46.4,49.1,48.0,46.2,50,49,47,30.25,30.09,9,-3,11,0.00
2013-1-21,73.9,61.9,50.4,49.5,48.2,46.9,51,49,48,30.21,30.10,6,-7,9,0.00
2013-1-22,74.1,61.2,50.5,53.2,48.0,45.5,59,49,46,30.30,30.17,9,-4,12,0.00
2013-1-23,75.4,64.8,54.0,61.2,53.7,46.8,77,60,47,30.32,30.20,14,-10,17,0.00
2013-1-24,79.5,68.1,60.1,61.0,55.8,48.0,78,65,50,30.27,30.11,18,-4,23,0.00
2013-1-25,80.1,69.3,59.9,61.3,56.1,48.7,78,65,51,30.17,30.04,17,1,20,0.00
2013-1-26,79.2,69.8,63.0,61.5,55.5,49.1,79,64,52,30.16,30.06,13,-10,17,0.00
2013-1-27,77.0,70.3,63.3,61.7,55.6,49.1,80,65,52,30.12,30.01,20,-3,24,0.01
2013-1-28,78.8,73.2,69.6,61.7,56.1,49.3,79,66,52,30.09,29.93,20,-2,22,0.00
2013-1-29,75.2,72.5,60.4,61.7,57.2,49.8,79,68,53,29.93,29.58,27,6,32,0.12
2013-1-30,63.1,57.7,48.4,61.0,45.6,37.6,76,45,32,30.21,29.72,19,-1,27,0.12
2013-1-31,68.4,56.4,42.4,39.9,37.2,34.3,35,32,28,30.29,30.18,15,0,19,0.00
2013-2-1,73.6,61.9,52.5,48.7,42.6,36.9,51,39,31,30.34,30.21,14,-6,16,0.00
2013-2-2,79.0,65.4,55.6,58.8,51.3,43.3,72,55,41,30.23,30.13,13,-7,13,0.00
2013-2-3,75.6,63.6,54.9,59.5,47.0,41.2,74,47,37,30.30,30.04,10,-2,12,0.00
2013-2-4,72.3,65.7,58.8,61.0,53.6,42.6,78,60,40,30.04,29.80,12,-7,13,0.18
2013-2-5,82.8,70.5,63.1,61.2,57.2,49.8,78,67,53,29.96,29.84,10,-3,12,0.01
2013-2-6,66.2,64.2,61.7,61.3,57.7,49.8,78,68,53,30.00,29.83,14,-2,21,0.63
2013-2-7,71.6,66.0,59.4,61.2,57.7,49.5,77,68,52,29.96,29.86,10,-11,12,0.00
2013-2-8,73.2,63.6,56.3,61.0,54.8,46.4,78,62,46,30.14,29.96,15,-5,17,0.00
2013-2-9,70.3,63.3,54.0,61.3,55.6,46.6,77,64,45,30.10,29.83,12,-1,17,0.00
2013-2-10,75.4,66.0,59.9,61.5,57.6,49.5,78,68,52,29.94,29.79,20,0,23,0.12
2013-2-11,63.9,57.2,54.5,60.4,54.3,46.9,75,61,47,30.02,29.92,17,-4,19,0.01
2013-2-12,64.8,60.2,54.9,60.8,56.6,47.5,76,66,48,29.94,29.77,11,-7,14,0.00
2013-2-13,64.4,55.7,48.0,59.5,47.2,41.4,74,47,38,30.09,29.93,13,-10,18,0.00
2013-2-14,69.3,56.6,44.1,47.7,43.4,39.7,49,41,35,30.14,30.01,8,-7,10,0.00
2013-2-15,71.4,58.1,46.8,49.8,44.7,40.5,53,43,37,30.29,30.06,19,-6,24,0.00
2013-2-16,64.8,54.1,42.6,43.3,35.8,32.5,41,30,26,30.41,30.22,10,-2,16,0.00
2013-2-17,70.7,60.7,46.9,49.6,41.3,34.2,52,38,28,30.23,30.02,21,2,23,0.00
2013-2-18,73.8,67.2,55.9,61.5,54.5,43.3,79,62,41,30.05,29.81,25,-1,33,0.36
2013-2-19,70.7,60.7,52.0,61.0,50.5,43.3,77,53,41,30.22,30.05,12,-1,15,0.19
2013-2-20,62.1,58.2,54.1,59.5,50.2,42.8,75,53,40,30.10,29.76,18,1,20,0.10
2013-2-21,76.8,70.2,62.1,61.3,57.2,47.8,78,68,49,29.82,29.64,23,0,24,0.12
2013-2-22,70.9,62.9,55.8,59.2,51.1,44.4,74,54,43,29.96,29.80,14,0,18,0.00
2013-2-23,72.1,61.2,50.0,54.5,48.8,43.3,63,49,41,29.96,29.85,15,-10,18,0.00
2013-2-24,69.4,62.3,52.9,59.5,50.6,43.3,74,53,41,29.91,29.64,14,-6,16,0.00
2013-2-25,75.7,64.3,49.6,61.0,51.2,39.9,78,55,35,29.74,29.48,31,4,41,0.00
2013-2-26,66.4,56.3,46.0,41.0,39.8,38.1,37,35,33,29.90,29.74,19,-4,24,0.00
2013-2-27,71.4,60.6,49.6,50.0,42.0,36.1,54,38,30,30.12,29.87,19,-10,25,0.00
2013-2-28,59.7,52.4,44.8,37.6,34.5,32.5,32,28,26,30.25,30.12,14,-6,18,0.00
2013-3-1,68.7,56.8,45.1,35.8,33.3,31.3,30,27,25,30.25,30.10,12,-6,17,0.00
2013-3-2,58.3,51.5,43.0,36.5,32.3,27.9,31,26,22,30.32,30.21,15,-1,20,0.00
2013-3-3,69.1,56.5,41.4,44.1,33.5,27.5,43,28,21,30.26,29.97,17,-4,21,0.00
2013-3-4,78.4,68.2,57.0,61.0,51.4,40.6,77,56,37,29.97,29.75,28,-5,33,0.00
2013-3-5,72.1,64.6,52.5,61.3,47.7,35.8,79,49,30,30.27,29.79,23,2,30,0.00
2013-3-6,70.7,57.1,43.2,37.0,33.6,30.2,31,27,24,30.38,30.19,13,-6,17,0.00
2013-3-7,70.9,59.7,48.4,52.2,43.5,35.8,58,41,30,30.25,30.15,11,-7,15,0.00
2013-3-8,72.1,63.5,56.1,60.4,53.0,43.7,76,59,42,30.18,30.04,14,-10,14,0.00
2013-3-9,75.0,69.0,62.4,61.3,56.9,48.2,78,67,49,30.04,29.75,23,-11,28,0.00
2013-3-10,70.0,63.5,55.0,61.3,55.2,44.1,78,63,42,30.03,29.70,16,-6,21,0.13
2013-3-11,64.9,56.5,48.9,49.8,39.8,32.5,53,35,26,30.09,29.96,14,-1,19,0.00
2013-3-12,74.5,60.5,46.8,41.7,36.3,32.4,39,31,26,30.22,30.04,12,-3,12,0.00
2013-3-13,76.5,62.4,50.5,46.0,42.4,39.6,46,39,35,30.41,30.21,12,-11,14,0.00
2013-3-14,75.6,63.4,51.1,52.9,46.3,41.7,60,45,39,30.38,30.25,15,-1,18,0.00
2013-3-15,79.0,66.6,54.3,59.4,51.2,43.7,73,55,42,30.25,30.04,21,-3,27,0.00
2013-3-16,79.5,69.3,59.2,61.2,55.4,47.3,78,64,48,30.04,29.83,19,-1,26,0.00
2013-3-17,79.5,71.5,62.8,61.9,56.7,49.3,78,67,52,29.85,29.68,20,2,23,0.00
2013-3-18,92.3,77.3,68.7,61.7,57.3,49.6,78,68,52,29.86,29.68,12,0,17,0.00
2013-3-19,80.1,71.7,63.9,61.2,56.1,47.5,78,65,48,29.97,29.85,11,-6,17,0.00
2013-3-20,76.6,68.0,57.9,61.0,52.7,43.2,76,58,40,30.16,29.91,20,-4,22,0.00
2013-3-21,72.7,66.4,59.4,60.4,51.7,43.9,76,56,42,30.01,29.69,19,-3,31,0.00
2013-3-22,82.2,75.0,68.2,61.5,56.3,48.4,78,66,51,29.71,29.63,18,2,24,0.00
2013-3-23,73.9,70.7,67.1,61.7,56.5,50.0,79,66,54,29.71,29.55,8,-7,12,0.00
2013-3-24,67.6,59.8,50.5,61.7,49.1,39.0,79,52,34,30.10,29.61,25,-4,25,0.00
2013-3-25,64.9,53.3,41.9,42.3,36.0,30.7,38,30,25,30.34,30.10,16,-5,20,0.00
2013-3-26,66.0,55.1,43.3,32.5,31.0,29.1,26,25,23,30.45,30.28,13,-1,18,0.00
2013-3-27,70.5,60.0,45.7,46.6,38.1,29.5,47,33,23,30.34,30.19,16,-2,17,0.00
2013-3-28,73.8,66.1,59.4,59.7,50.9,42.3,74,54,40,30.23,30.15,12,-2,15,0.00
2013-3-29,78.6,68.5,60.8,61.5,55.5,47.3,78,64,48,30.19,30.09,13,-2,19,0.00
2013-3-30,79.2,71.3,65.7,61.7,56.3,48.7,78,66,51,30.12,29.93,14,-4,19,0.00
2013-3-31,84.6,70.4,64.4,61.5,56.5,49.6,79,66,52,29.95,29.82,29,0,29,0.23
2013-4-1,80.4,69.7,62.2,61.5,56.7,49.3,78,66,52,30.05,29.91,10,-2,11,0.01
2013-4-2,72.7,68.5,62.4,61.5,56.6,49.5,77,66,52,29.99,29.79,39,-16,39,0.12
2013-4-3,70.2,61.4,53.2,61.5,56.5,48.0,77,66,49,30.05,29.77,14,-10,19,0.15
2013-4-4,58.8,54.0,51.3,60.3,51.1,42.8,75,54,40,30.15,29.99,16,-6,17,0.04
2013-4-5,73.8,61.4,48.4,55.6,47.8,42.3,65,48,39,30.22,30.05,12,-2,16,0.00
2013-4-6,74.1,65.5,54.5,61.3,53.3,44.4,78,59,43,30.09,29.92,18,-8,22,0.00
2013-4-7,79.5,71.4,64.6,61.7,55.9,48.7,79,65,51,29.96,29.83,17,-4,21,0.00
2013-4-8,81.1,73.5,66.9,61.9,56.2,49.5,79,65,52,29.86,29.75,19,-4,26,0.00
2013-4-9,82.4,75.8,69.3,61.9,56.6,49.8,79,66,53,29.78,29.68,20,2,26,0.00
2013-4-10,81.0,67.2,50.4,62.2,56.6,48.0,78,66,50,29.81,29.69,23,-2,30,0.08
2013-4-11,73.8,59.4,44.1,59.9,50.6,43.5,75,53,41,29.90,29.75,12,-2,18,1.43
2013-4-12,82.2,67.0,52.9,57.0,49.4,43.3,68,51,41,29.98,29.83,10,-7,11,0.00
2013-4-13,78.6,67.9,56.5,61.5,54.0,45.9,78,61,45,29.95,29.78,14,-6,16,0.00
2013-4-14,84.4,72.1,63.0,61.7,56.1,48.9,78,65,51,29.78,29.65,16,-9,19,0.00
2013-4-15,81.9,75.3,70.7,61.7,56.6,49.5,79,66,52,29.83,29.71,15,1,18,0.00
2013-4-16,83.3,76.8,72.3,61.9,57.2,50.7,79,68,55,29.93,29.81,11,-6,15,0.00
2013-4-17,77.9,75.6,73.9,62.1,57.7,50.9,79,68,55,29.91,29.74,13,-4,20,0.00
2013-4-18,76.8,65.4,54.3,61.5,56.9,45.9,77,67,45,30.01,29.69,22,-3,22,0.13
2013-4-19,68.7,58.2,48.7,55.0,42.4,36.1,64,39,30,30.21,30.01,19,-3,23,0.00
2013-4-20,71.1,60.3,48.2,49.5,41.0,36.3,52,37,30,30.22,30.06,12,-1,15,0.00
2013-4-21,75.7,66.1,57.7,60.3,51.4,43.0,74,55,40,30.14,30.03,10,-6,12,0.00
2013-4-22,81.9,70.1,61.0,61.2,56.3,47.5,77,65,48,30.09,29.92,12,-2,13,0.00
2013-4-23,81.0,72.7,62.8,61.7,57.3,49.5,78,67,52,29.95,29.85,16,0,18,0.00
2013-4-24,73.4,62.7,50.5,61.9,52.5,44.2,77,57,42,30.18,29.93,17,-3,22,0.04
2013-4-25,77.7,66.6,57.4,59.4,49.5,42.3,74,51,39,30.27,30.14,12,0,17,0.00
2013-4-26,82.2,74.0,67.3,61.5,57.2,48.6,78,67,50,30.18,30.05,16,-4,18,0.00
2013-4-27,77.0,71.0,64.6,61.3,57.6,50.7,78,68,56,30.09,29.93,23,-4,28,2.03
2013-4-28,81.7,75.7,66.2,61.2,57.6,49.6,76,68,52,29.98,29.86,20,-2,27,0.66
2013-4-29,87.4,75.2,67.5,61.7,57.4,49.8,77,68,54,29.91,29.80,8,-6,13,0.00
2013-4-30,84.9,75.7,69.8,61.3,57.4,49.6,78,68,52,29.83,29.71,10,-6,13,0.49
2013-5-1,87.3,77.2,69.1,61.2,57.2,49.8,78,68,53,29.86,29.77,9,-6,11,0.03
2013-5-2,79.3,68.3,52.7,61.5,56.3,45.7,78,65,45,30.14,29.85,18,-8,22,0.00
2013-5-3,69.6,58.7,48.7,54.1,43.4,37.0,62,40,31,30.15,30.01,17,-3,25,0.00
2013-5-4,80.6,66.8,50.2,51.6,41.4,37.4,57,37,32,30.06,29.82,20,2,28,0.00
2013-5-5,75.4,66.3,55.6,54.1,45.6,40.8,62,44,37,30.06,29.92,10,-5,17,0.00
2013-5-6,82.2,69.0,55.2,56.3,48.3,41.9,66,49,39,30.08,29.95,8,-7,14,0.00
2013-5-7,86.4,74.3,63.1,60.6,54.1,45.7,76,61,45,30.04,29.92,14,-5,16,0.00
2013-5-8,85.5,73.8,64.9,61.7,56.4,48.7,79,66,50,30.04,29.94,17,-4,20,0.00
2013-5-9,78.4,74.8,70.5,61.7,57.8,50.0,78,68,53,29.98,29.83,16,0,17,0.04
2013-5-10,81.0,72.8,64.9,61.5,57.9,50.0,77,68,53,30.04,29.79,20,-2,44,4.62
2013-5-11,88.5,76.7,66.0,61.3,57.9,49.6,78,68,52,30.05,29.89,13,-1,15,0.46
2013-5-12,83.7,75.5,66.7,61.3,56.4,48.4,76,65,49,30.15,30.04,10,-4,14,0.00
2013-5-13,84.4,73.0,63.0,60.8,54.8,46.4,75,61,46,30.26,30.14,8,-6,12,0.00
2013-5-14,84.2,73.7,63.3,61.5,57.2,49.3,77,67,51,30.19,30.07,16,0,18,0.00
2013-5-15,79.9,73.4,69.6,61.5,57.9,50.4,77,68,53,30.11,29.90,16,-7,18,0.11
2013-5-16,82.9,76.7,71.4,61.7,58.3,50.7,78,69,54,29.93,29.79,18,2,23,0.00
2013-5-17,86.9,79.6,73.4,61.9,58.2,50.7,78,68,54,29.92,29.81,17,-3,22,0.00
2013-5-18,90.0,81.0,74.5,61.9,58.0,50.5,79,68,54,29.93,29.86,15,-1,22,0.00
2013-5-19,88.5,80.9,75.4,61.7,57.5,50.5,79,67,54,29.89,29.79,20,-5,23,0.00
2013-5-20,88.7,81.5,77.5,63.1,56.9,50.0,79,66,53,29.88,29.75,18,2,21,0.00
2013-5-21,88.2,81.5,77.0,66.6,59.6,50.5,77,70,54,29.84,29.69,22,-2,24,0.00
2013-5-22,92.3,82.1,73.6,61.5,57.8,50.9,78,68,54,29.89,29.77,11,-2,13,0.00
2013-5-23,91.6,81.9,75.7,62.2,58.0,50.7,79,68,54,30.02,29.86,12,-5,20,0.00
2013-5-24,90.5,82.0,76.5,62.1,57.8,50.9,78,68,54,30.10,29.97,14,-6,14,0.00
2013-5-25,86.9,80.7,75.2,62.6,57.9,51.1,78,68,55,30.12,30.02,12,-6,16,0.00
2013-5-26,89.1,82.0,76.8,61.7,57.6,50.5,78,68,54,30.08,29.98,17,-4,20,0.00
2013-5-27,88.2,81.0,73.8,62.1,57.6,50.5,78,68,54,30.02,29.90,20,2,24,0.00
2013-5-28,87.1,80.5,76.3,61.5,57.9,50.7,78,68,54,29.94,29.84,19,-2,22,0.00
2013-5-29,86.5,80.9,77.0,61.9,57.9,51.1,77,68,55,29.86,29.78,21,1,23,0.00
2013-5-30,88.5,82.2,77.2,61.9,57.9,51.1,79,68,55,29.86,29.78,16,-6,22,0.00
2013-5-31,90.9,83.8,78.8,61.5,57.5,51.1,78,68,55,29.88,29.80,20,-5,23,0.00
2013-6-1,93.0,84.7,78.4,62.1,57.6,51.6,78,68,56,29.86,29.80,18,3,24,0.00
2013-6-2,87.4,79.7,71.1,62.1,57.6,51.1,77,68,55,30.00,29.85,11,-5,14,0.00
2013-6-3,95.4,83.3,72.3,61.9,57.5,49.8,78,67,53,29.93,29.80,9,-2,12,0.00
2013-6-4,97.0,83.4,74.5,61.3,57.4,50.0,79,67,53,29.89,29.78,10,-6,13,0.00
2013-6-5,97.3,85.1,75.9,61.9,57.5,50.7,79,68,55,29.86,29.72,12,-2,14,0.00
2013-6-6,95.7,83.9,72.9,61.7,57.1,50.5,78,67,54,29.85,29.67,18,-1,20,0.06
2013-6-7,92.7,80.8,71.1,61.5,57.2,49.6,79,67,52,29.91,29.81,11,-10,13,0.06
2013-6-8,92.8,81.0,74.1,62.1,57.0,49.6,79,67,52,29.90,29.79,21,-10,35,0.00
2013-6-9,89.1,78.5,73.6,62.2,57.5,51.1,80,68,55,29.92,29.82,15,-10,18,0.19
2013-6-10,94.3,82.1,74.1,62.2,57.9,51.1,80,68,55,29.96,29.90,14,-6,24,0.12
2013-6-11,93.4,84.3,77.5,61.9,58.2,51.6,79,69,56,30.02,29.94,13,-9,15,0.05
2013-6-12,93.9,85.1,78.1,61.5,57.9,51.6,77,68,56,30.04,29.94,14,0,16,0.00
2013-6-13,99.1,85.9,78.8,62.1,57.8,51.1,79,68,56,30.03,29.88,15,0,17,0.00
2013-6-14,97.2,86.9,79.0,62.4,57.6,51.1,78,68,55,29.95,29.84,11,-1,14,0.00
2013-6-15,93.9,86.3,80.4,61.9,57.4,51.1,80,67,56,29.96,29.86,11,-4,15,0.00
2013-6-16,96.1,86.1,77.0,61.5,57.3,51.1,78,67,55,30.00,29.88,18,-7,19,0.00
2013-6-17,94.8,85.8,78.3,62.1,57.3,51.3,78,67,55,29.97,29.85,15,-2,20,0.00
2013-6-18,95.0,83.2,75.7,61.5,57.5,51.1,77,67,55,29.96,29.83,17,-4,19,2.03
2013-6-19,96.3,84.1,76.6,61.9,57.9,51.1,79,68,55,29.96,29.88,12,-1,18,2.06
2013-6-20,93.6,85.4,77.4,62.4,57.7,51.1,79,68,55,30.05,29.93,15,0,19,0.00
2013-6-21,96.3,85.9,78.3,62.1,57.4,51.1,80,67,55,30.07,29.97,11,-8,15,0.00
2013-6-22,96.3,85.9,78.3,61.5,56.4,50.9,78,66,55,30.04,29.92,11,-7,16,0.00
2013-6-23,95.2,86.0,79.0,61.3,56.3,50.7,79,65,55,29.99,29.91,15,0,19,0.00
2013-6-24,94.3,85.6,78.4,61.7,56.5,50.9,79,65,55,30.04,29.94,15,1,22,0.03
2013-6-25,93.7,86.1,80.4,61.5,56.5,51.4,78,66,56,30.01,29.91,17,2,19,0.00
2013-6-26,98.1,86.5,79.0,61.7,56.9,51.1,78,66,54,29.98,29.88,14,1,18,0.00
2013-6-27,100.9,86.9,78.3,62.1,57.2,51.8,78,67,56,30.00,29.88,14,0,16,0.00
2013-6-28,101.7,87.8,77.7,62.2,57.0,51.6,79,67,56,29.95,29.76,14,-3,18,0.00
2013-6-29,108.3,91.3,80.1,61.7,56.8,52.2,80,66,57,29.83,29.66,12,-3,16,0.00
2013-6-30,100.2,91.9,83.7,61.3,55.8,50.0,79,64,53,29.83,29.72,15,-9,15,0.00
2013-7-1,94.5,86.4,76.5,61.5,55.4,49.1,79,64,52,29.91,29.81,18,-1,18,0.00
2013-7-2,97.5,85.8,74.3,61.9,56.0,48.9,79,65,51,29.98,29.88,9,-2,12,0.00
2013-7-3,97.3,85.1,75.4,61.7,56.5,50.0,79,66,53,29.99,29.87,12,-10,14,0.00
2013-7-4,96.1,85.7,76.6,61.9,56.8,51.4,80,66,54,29.95,29.85,9,-6,11,0.00
2013-7-5,97.9,87.5,76.6,62.4,56.7,51.1,79,66,55,29.94,29.83,10,-6,14,0.00
2013-7-6,96.4,86.8,79.2,62.1,56.7,51.6,80,66,56,29.91,29.82,10,-2,13,0.00
2013-7-7,91.4,84.1,80.2,62.2,57.0,52.3,79,66,58,29.97,29.86,15,0,20,0.00
2013-7-8,91.2,83.0,75.7,62.1,57.2,51.8,78,67,57,30.12,29.96,17,-2,29,0.21
2013-7-9,98.4,86.7,78.4,62.1,57.3,52.0,78,67,57,30.12,30.01,12,-1,16,0.00
2013-7-10,96.4,86.5,79.5,62.2,57.4,52.0,81,67,57,30.06,29.92,15,0,17,0.00
2013-7-11,98.1,86.5,78.1,62.6,57.1,51.8,79,67,56,29.99,29.86,13,0,16,0.00
2013-7-12,99.1,87.2,79.5,61.7,56.9,51.8,78,66,56,29.94,29.83,13,-8,18,0.00
2013-7-13,103.5,87.7,78.4,62.1,56.9,52.3,79,67,58,29.95,29.80,11,-5,17,0.25
2013-7-14,92.3,85.0,78.8,62.2,57.1,52.3,79,67,58,29.92,29.82,11,-1,18,0.01
2013-7-15,93.9,82.0,75.4,61.9,57.2,51.6,79,67,56,30.02,29.87,11,-7,17,0.22
2013-7-16,94.5,81.3,75.0,62.2,57.6,52.0,79,68,57,30.07,29.98,9,-5,12,0.38
2013-7-17,86.4,79.4,73.4,62.2,57.9,52.2,80,69,57,30.15,30.05,8,-2,11,0.71
2013-7-18,97.0,86.1,75.7,62.2,58.0,51.1,81,69,55,30.11,29.96,10,-2,13,0.00
2013-7-19,90.0,80.5,76.6,62.2,58.1,52.0,79,69,57,30.03,29.91,11,-10,12,0.09
2013-7-20,89.6,81.2,75.9,62.6,58.3,53.1,80,69,59,29.95,29.84,11,-6,17,0.39
2013-7-21,87.8,81.3,75.6,62.1,57.6,53.2,78,68,60,29.98,29.88,16,1,22,0.04
2013-7-22,93.7,85.5,79.0,61.9,57.6,52.5,79,68,58,29.99,29.92,20,-2,21,0.05
2013-7-23,94.5,85.6,79.3,61.9,57.6,52.0,79,68,57,30.01,29.88,16,-2,20,0.00
2013-7-24,95.7,85.8,77.5,61.9,57.7,52.0,79,68,57,29.98,29.83,17,-6,19,0.00
2013-7-25,100.6,86.7,77.7,62.2,57.4,52.0,78,67,57,30.00,29.91,12,0,15,0.00
2013-7-26,95.9,86.2,78.8,62.1,57.4,52.2,78,67,57,30.01,29.87,17,2,21,0.00
2013-7-27,98.1,85.0,78.1,62.2,57.4,53.1,80,67,59,29.93,29.81,15,0,19,0.07
2013-7-28,93.7,85.6,79.5,62.1,57.5,52.9,79,67,59,29.94,29.86,14,-4,16,0.07
2013-7-29,95.2,86.2,78.8,77.9,69.6,52.7,87,65,46,30.00,29.93,17,-2,24,0.00
2013-7-30,95.7,85.4,78.4,77.2,75.2,69.3,91,73,44,0.00,40.00,18,-6,18,0.00
2013-7-31,98.1,86.3,77.2,78.8,74.8,70.9,93,71,43,0.00,40.00,16,-7,17,0.00
2013-8-1,103.5,88.3,78.8,78.3,74.8,67.3,92,68,33,0.00,40.00,16,-4,16,0.00
2013-8-2,98.1,86.8,79.3,78.3,75.6,70.2,89,71,44,0.00,40.00,14,-4,14,0.00
2013-8-3,97.5,86.8,78.3,79.5,76.2,72.5,90,72,47,0.00,40.00,16,-7,16,0.00
2013-8-4,97.5,87.1,80.1,79.0,76.9,73.4,91,73,48,0.00,40.00,19,-7,19,0.00
2013-8-5,98.8,87.4,79.0,78.1,75.8,70.3,92,71,42,0.00,40.00,21,-6,22,0.00
2013-8-6,97.3,87.2,78.6,78.8,76.0,71.4,93,72,45,0.00,40.00,23,-4,23,0.00
2013-8-7,99.9,87.6,79.2,78.4,75.5,67.8,93,71,37,0.00,40.00,20,-5,21,0.00
2013-8-8,99.0,86.7,77.7,77.5,75.5,69.4,93,72,43,0.00,40.00,21,-6,21,0.00
2013-8-9,100.4,88.4,79.0,78.6,76.0,72.3,90,69,44,0.00,40.00,11,-9,11,0.00
2013-8-10,95.2,85.2,77.2,79.3,77.0,72.9,94,78,51,0.00,40.00,10,-10,10,0.24
2013-8-11,93.4,85.6,80.8,79.7,77.1,73.8,91,77,57,0.00,40.00,13,-10,13,0.72
2013-8-12,95.2,86.6,79.3,77.7,76.3,73.0,88,73,51,0.00,40.00,15,-7,17,0.00
2013-8-13,101.7,88.0,79.9,78.8,75.6,68.2,93,70,36,0.00,40.00,18,-6,18,0.00
2013-8-14,102.0,85.1,75.7,78.3,75.0,67.6,94,75,36,0.00,40.00,21,-4,22,0.41
2013-8-15,91.6,82.3,74.8,76.8,74.9,67.3,96,80,47,0.00,40.00,8,-11,8,0.45
2013-8-16,99.0,84.4,74.8,76.5,74.4,70.2,94,75,41,0.00,40.00,20,-10,22,0.23
2013-8-17,96.3,84.3,73.8,75.7,68.1,59.0,94,62,31,0.00,40.00,14,-5,15,0.04
2013-8-18,95.4,85.0,73.8,72.7,68.7,64.6,80,60,40,0.00,40.00,12,-5,12,0.00
2013-8-19,97.2,85.9,76.3,74.1,70.1,63.1,85,62,34,0.00,40.00,12,-9,12,0.00
2013-8-20,90.7,82.8,78.3,76.3,73.5,70.9,87,74,58,0.00,40.00,16,-9,16,0.00
2013-8-21,97.7,85.4,76.8,77.4,74.8,68.7,92,73,43,0.00,40.00,11,-10,11,0.00
2013-8-22,98.4,87.2,79.9,78.4,75.7,71.2,91,71,43,0.00,40.00,12,-6,12,0.00
2013-8-23,100.9,89.0,79.9,77.9,74.6,67.6,87,65,35,0.00,40.00,11,-13,12,0.00
2013-8-24,97.9,88.7,81.7,77.9,74.8,70.3,83,65,43,0.00,40.00,15,-8,15,0.00
2013-8-25,87.3,81.8,78.3,77.5,75.6,73.6,91,82,66,0.00,40.00,15,-3,15,0.05
2013-8-26,84.0,79.2,75.0,77.5,74.6,71.2,97,86,68,0.00,40.00,10,-10,13,0.57
2013-8-27,96.6,85.1,75.9,77.4,74.5,71.8,94,73,46,0.00,40.00,10,-14,11,0.00
2013-8-28,98.8,87.2,76.8,75.4,71.8,66.7,88,63,37,0.00,40.00,15,-2,15,0.00
2013-8-29,103.1,87.8,78.4,77.4,73.9,65.8,86,66,34,0.00,40.00,17,-4,17,0.00
2013-8-30,100.6,86.6,79.9,78.1,75.4,72.1,86,71,43,0.00,40.00,16,-8,17,0.00
2013-8-31,98.6,86.6,78.4,75.0,73.4,70.5,85,67,41,0.00,40.00,11,-4,16,0.00
2013-9-1,97.5,86.2,77.5,76.5,73.5,68.7,87,68,42,0.00,40.00,17,-7,18,0.00
2013-9-2,101.1,86.3,79.2,77.7,75.1,68.5,89,72,38,0.00,40.00,22,-8,25,0.00
2013-9-3,99.7,88.0,79.7,77.9,74.4,68.0,89,67,39,0.00,40.00,17,-4,17,0.00
2013-9-4,95.4,87.0,81.3,77.2,74.7,68.5,85,68,45,0.00,40.00,15,-10,15,0.00
2013-9-5,97.2,85.7,78.6,80.4,76.2,72.0,96,74,46,0.00,40.00,24,-10,25,0.85
2013-9-6,94.8,86.0,79.9,78.1,76.0,73.0,89,73,54,0.00,40.00,11,-6,11,0.00
2013-9-7,93.4,82.6,75.6,79.2,75.7,70.0,93,81,52,0.00,40.00,13,-10,13,0.75
2013-9-8,94.3,84.0,75.6,77.5,74.9,71.1,94,76,50,0.00,40.00,14,-10,14,0.00
2013-9-9,94.5,85.2,78.8,77.0,74.6,70.9,88,72,48,0.00,40.00,13,-10,14,0.00
2013-9-10,93.6,84.1,76.3,78.1,75.0,71.1,94,75,51,0.00,40.00,12,-10,12,0.39
2013-9-11,97.2,86.3,79.0,77.4,74.0,69.6,87,69,43,0.00,40.00,14,-6,14,0.00
2013-9-12,97.5,87.0,79.2,77.2,73.1,64.0,89,66,36,0.00,40.00,13,-5,14,0.00
2013-9-13,99.1,87.3,78.1,75.2,71.0,64.9,83,62,34,0.00,40.00,12,-6,13,0.00
2013-9-14,90.9,83.9,79.2,78.6,75.0,72.9,86,75,59,0.00,40.00,12,-6,13,0.17
2013-9-15,94.8,85.7,76.1,78.3,75.5,72.1,91,73,52,0.00,40.00,13,-9,13,0.00
2013-9-16,92.8,84.5,74.8,78.6,76.1,72.1,96,76,58,0.00,40.00,24,-10,24,1.18
2013-9-17,96.1,86.8,78.3,78.6,75.9,71.6,92,72,48,0.00,40.00,12,-10,15,0.00
2013-9-18,94.8,86.6,79.5,78.6,76.0,70.9,92,72,50,0.00,40.00,13,-6,13,0.00
2013-9-19,93.7,83.8,78.3,80.1,77.4,75.4,94,82,56,0.00,40.00,19,-6,19,0.37
2013-9-20,84.7,79.5,74.5,81.9,77.8,73.4,100,94,85,0.00,40.00,40,-9,40,1.23
2013-9-21,79.3,75.4,72.1,74.3,70.6,68.4,99,86,71,0.00,40.00,19,-8,20,1.38
2013-9-22,86.2,78.0,68.0,68.7,62.7,58.1,87,61,40,0.00,40.00,17,-7,17,0.00
2013-9-23,93.0,82.5,72.0,75.6,68.2,59.7,83,63,48,0.00,40.00,10,-8,11,0.00
2013-9-24,97.2,87.4,78.3,78.3,72.2,64.4,91,63,40,0.00,40.00,16,-14,16,0.00
2013-9-25,99.7,86.7,75.2,74.5,66.8,55.8,82,56,24,0.00,40.00,12,-10,12,0.00
2013-9-26,95.0,84.2,74.8,73.6,68.4,60.1,88,62,35,0.00,40.00,14,-5,14,0.00
2013-9-27,90.7,83.8,78.6,77.0,74.6,71.4,83,74,63,0.00,40.00,12,-6,12,0.00
2013-9-28,88.9,82.2,78.1,79.2,76.5,73.9,97,83,69,0.00,40.00,20,-10,20,0.48
2013-9-29,85.5,80.7,78.1,78.4,75.8,73.9,92,85,73,0.00,40.00,21,-13,21,0.10
2013-9-30,89.1,80.9,75.9,78.3,75.7,73.2,93,85,64,0.00,40.00,12,-10,12,0.31
2013-10-1,90.3,81.7,77.7,77.4,74.4,68.2,94,80,57,0.00,40.00,16,-10,17,0.00
2013-10-2,87.3,80.4,74.5,77.7,75.6,71.4,96,86,71,0.00,40.00,21,-10,21,0.15
2013-10-3,88.7,81.2,76.3,80.2,75.8,73.6,95,84,69,0.00,40.00,13,-10,13,0.55
2013-10-4,93.7,82.8,74.1,77.4,74.8,70.5,95,78,51,0.00,40.00,14,-10,15,0.00
2013-10-5,95.2,85.0,71.4,78.4,74.7,64.0,94,73,50,0.00,40.00,16,-6,16,0.01
2013-10-6,81.1,69.7,58.8,63.9,50.7,40.5,84,55,27,0.00,40.00,16,-9,20,0.13
2013-10-7,84.0,72.2,60.4,55.2,46.9,40.6,69,42,27,0.00,40.00,14,-10,14,0.00
2013-10-8,86.7,73.0,59.0,60.6,54.7,50.5,83,56,30,0.00,40.00,8,-11,8,0.00
2013-10-9,88.5,75.5,62.4,65.1,62.6,58.3,92,66,41,0.00,40.00,10,-11,10,0.00
2013-10-10,90.5,78.6,68.9,69.1,66.4,62.6,86,68,45,0.00,40.00,14,-10,14,0.00
2013-10-11,88.9,80.6,72.3,75.9,71.9,67.6,90,76,58,0.00,40.00,15,-14,15,0.01
2013-10-12,87.3,78.1,72.9,78.6,74.2,68.2,97,88,71,0.00,40.00,28,-9,28,0.85
2013-10-13,77.4,75.1,73.0,74.7,73.0,71.6,100,93,87,0.00,40.00,10,-10,10,0.10
2013-10-14,86.7,79.6,72.7,76.5,72.4,69.4,98,80,59,0.00,40.00,16,-10,18,0.00
2013-10-15,87.1,80.2,74.5,75.0,72.7,70.7,94,79,61,0.00,40.00,16,-9,16,0.00
2013-10-16,79.2,71.8,64.9,71.6,67.8,61.5,95,88,74,0.00,40.00,12,-14,12,0.01
2013-10-17,81.9,70.5,62.2,61.5,58.9,55.6,91,69,44,0.00,40.00,14,-6,14,0.00
2013-10-18,74.8,68.7,62.8,63.1,59.8,55.0,96,74,56,0.00,40.00,14,-9,14,0.14
2013-10-19,73.8,65.6,57.7,65.3,53.7,45.5,98,68,41,0.00,40.00,16,-10,16,1.02
2013-10-20,78.6,66.6,52.9,62.8,55.5,44.6,89,69,45,0.00,40.00,10,-7,10,0.00
2013-10-21,78.6,71.9,66.6,67.8,64.8,61.0,89,79,63,0.00,40.00,9,-11,9,0.00
2013-10-22,78.1,68.9,61.2,65.3,58.1,48.7,91,71,42,0.00,40.00,16,-10,16,0.00
2013-10-23,86.4,72.1,57.0,56.5,51.9,45.5,82,53,25,0.00,40.00,7,-11,8,0.00
2013-10-24,87.3,74.0,61.2,60.4,55.5,50.4,83,56,32,0.00,40.00,8,-15,8,0.00
2013-10-25,80.1,69.2,60.6,61.5,57.6,55.2,90,68,47,0.00,40.00,11,-14,12,0.00
2013-10-26,83.5,71.4,58.5,66.0,61.3,53.4,87,71,48,0.00,40.00,14,-10,15,0.00
2013-10-27,79.0,70.2,63.1,68.0,65.2,61.7,97,85,68,0.00,40.00,10,-7,11,0.05
2013-10-28,85.6,76.0,65.8,73.6,68.9,62.8,95,80,62,0.00,40.00,15,-10,15,0.00
2013-10-29,85.1,77.8,72.0,72.0,70.3,68.5,92,79,62,0.00,40.00,17,-5,18,0.00
2013-10-30,80.8,77.7,74.3,77.9,75.4,70.5,98,93,86,0.00,40.00,22,-8,23,1.12
2013-10-31,78.6,70.9,63.5,77.7,69.8,62.6,100,96,88,0.00,40.00,21,-10,24,1.36
2013-11-1,82.4,71.4,58.5,66.2,60.7,53.1,99,72,38,0.00,40.00,14,-10,14,0.01
2013-11-2,75.4,66.9,57.7,56.8,45.4,37.0,82,48,28,0.00,40.00,20,-8,20,0.02
2013-11-3,72.5,62.3,52.7,53.8,49.6,41.7,80,64,50,0.00,40.00,12,-9,12,0.00
2013-11-4,75.0,69.1,59.2,67.8,63.3,51.8,90,82,74,0.00,40.00,16,-10,17,0.01
2013-11-5,81.5,76.1,71.4,72.1,69.9,63.9,96,82,65,0.00,40.00,18,-10,18,0.01
2013-11-6,84.9,71.6,55.4,74.7,64.6,47.1,98,79,60,0.00,40.00,20,-5,20,0.00
2013-11-7,67.5,59.0,47.7,47.1,41.6,37.9,80,54,37,0.00,40.00,21,-7,21,0.00
2013-11-8,69.6,61.0,52.7,46.4,42.3,38.5,74,51,34,0.00,40.00,13,-10,15,0.00
2013-11-9,72.7,65.3,57.4,59.2,53.9,43.0,83,67,53,0.00,40.00,8,-11,8,0.00
2013-11-10,76.5,65.8,57.7,57.2,53.8,48.4,82,67,39,0.00,40.00,12,-6,12,0.00
2013-11-11,79.2,68.4,56.5,57.4,54.7,50.0,86,64,39,0.00,40.00,9,-11,10,0.00
2013-11-12,73.8,61.0,48.9,57.9,52.6,38.8,89,75,55,0.00,40.00,24,-2,25,0.00
2013-11-13,58.5,49.3,38.3,39.2,31.4,25.9,70,51,32,0.00,40.00,21,-9,21,0.00
2013-11-14,66.4,54.8,43.5,52.2,44.3,31.8,75,68,56,0.00,40.00,13,-6,13,0.00
2013-11-15,80.2,69.0,55.9,67.8,62.7,47.8,95,81,62,0.00,40.00,12,-11,12,0.00
2013-11-16,81.1,74.9,66.0,74.8,72.0,63.7,100,91,77,0.00,40.00,20,-4,23,0.00
2013-11-17,85.6,79.3,73.4,75.4,73.6,72.1,98,84,67,0.00,40.00,21,-8,24,0.00
2013-11-18,80.4,73.6,65.3,73.6,60.4,45.5,100,67,42,0.00,40.00,13,-9,14,0.00
2013-11-19,74.5,65.4,58.6,52.9,46.9,42.4,67,52,39,0.00,40.00,14,-10,15,0.00
2013-11-20,73.2,66.2,57.4,67.3,59.0,42.1,95,78,55,0.00,40.00,12,-14,13,0.00
2013-11-21,81.9,75.7,68.9,74.3,72.0,67.3,95,88,76,0.00,40.00,16,-5,18,0.00
2013-11-22,74.7,55.3,45.0,72.9,53.8,43.0,100,95,91,0.00,40.00,19,-9,21,0.96
2013-11-23,49.6,48.1,44.2,48.4,45.4,41.0,97,90,79,0.00,40.00,22,-7,23,0.01
2013-11-24,50.7,46.9,43.9,41.4,35.0,31.6,80,63,53,0.00,40.00,18,-8,19,0.00
2013-11-25,45.1,42.6,39.0,42.8,40.1,34.9,97,91,69,0.00,40.00,19,-9,19,1.02
2013-11-26,45.5,42.7,39.9,41.2,39.8,37.6,100,89,84,0.00,40.00,16,-11,16,0.46
2013-11-27,54.1,45.1,36.7,38.3,30.5,25.0,84,58,36,0.00,40.00,14,-10,15,0.00
2013-11-28,58.6,47.5,37.2,43.5,38.7,28.6,88,72,56,0.00,40.00,8,-11,9,0.00
2013-11-29,65.1,53.3,41.7,42.4,38.9,33.8,83,60,37,0.00,40.00,10,-11,10,0.00
2013-11-30,74.7,60.3,45.0,56.7,51.1,41.7,94,74,47,0.00,40.00,12,-11,12,0.00
2013-12-1,71.1,64.0,55.4,61.9,59.0,52.7,94,84,70,0.00,40.00,14,-10,15,0.00
2013-12-2,77.5,69.0,62.1,65.5,63.0,60.4,97,82,62,0.00,40.00,24,-7,24,0.00
2013-12-3,80.8,71.1,63.0,67.8,65.3,61.7,98,83,57,0.00,40.00,22,-5,23,0.00
2013-12-4,80.8,74.0,66.2,73.0,70.5,65.7,99,90,69,0.00,40.00,19,-4,20,0.00
2013-12-5,77.5,57.5,40.5,74.5,54.2,38.8,98,89,76,0.00,40.00,22,-5,22,0.00
2013-12-6,43.0,39.9,36.0,39.4,36.9,32.5,97,89,82,0.00,40.00,21,-9,21,0.00
2013-12-7,38.7,37.6,35.1,35.4,34.2,31.5,90,87,85,0.00,40.00,18,-10,18,0.00
2013-12-8,48.9,44.9,36.9,44.2,40.0,34.2,96,83,75,0.00,40.00,9,-12,10,0.00
2013-12-9,48.4,45.4,42.1,47.1,44.1,39.9,97,95,93,0.00,40.00,20,-14,21,0.11
2013-12-10,51.3,43.6,34.3,39.7,32.1,28.9,92,65,45,0.00,40.00,18,-10,19,0.02
2013-12-11,52.9,48.0,39.0,43.2,39.5,33.8,83,72,64,0.00,40.00,11,-11,12,0.00
2013-12-12,57.0,49.3,39.7,40.1,37.2,34.9,84,64,47,0.00,40.00,16,-10,16,0.00
2013-12-13,58.5,54.3,45.9,57.2,50.6,36.7,98,88,64,0.00,40.00,11,-12,11,0.08
2013-12-14,61.5,52.6,41.9,57.2,46.6,34.2,99,80,67,0.00,40.00,21,-14,24,0.08
2013-12-15,61.5,49.0,36.3,36.5,34.3,31.1,81,59,36,0.00,40.00,16,-12,16,0.00
2013-12-16,68.4,52.9,37.9,43.5,38.5,33.6,88,62,30,0.00,40.00,11,-7,11,0.00
2013-12-17,74.1,59.0,42.1,52.5,46.1,38.8,93,67,30,0.00,40.00,11,-12,11,0.00
2013-12-18,72.1,60.1,47.7,56.7,53.5,46.8,99,80,56,0.00,40.00,11,-11,12,0.00
2013-12-19,76.6,68.7,58.6,67.8,63.8,54.0,94,85,72,0.00,40.00,18,-3,24,0.00
2013-12-20,76.5,73.1,67.6,72.7,71.0,66.2,97,93,87,0.00,40.00,22,-3,22,0.00
2013-12-21,76.3,66.4,58.3,73.2,64.6,57.2,98,94,85,0.00,40.00,25,-5,27,0.36
2013-12-22,63.7,54.9,39.7,59.9,47.8,32.7,100,78,62,0.00,40.00,22,-5,22,0.01
2013-12-23,55.2,45.3,34.2,34.2,32.4,30.4,86,62,41,0.00,40.00,19,-4,19,0.00
2013-12-24,61.3,49.1,37.8,40.6,35.4,28.9,85,62,31,0.00,40.00,11,-7,11,0.00
2013-12-25,62.4,53.5,43.9,50.0,45.8,39.4,89,75,63,0.00,40.00,11,-11,11,0.00
2013-12-26,65.5,57.4,51.6,49.6,42.7,36.5,89,59,44,0.00,40.00,10,-11,11,0.00
2013-12-27,57.9,54.1,50.7,44.1,40.3,36.9,75,60,47,0.00,40.00,13,-10,13,0.00
2013-12-28,65.8,54.2,47.3,41.0,37.0,29.3,74,54,28,0.00,40.00,9,-12,9,0.00
2013-12-29,72.0,58.1,44.2,49.1,41.8,31.3,91,58,30,0.00,40.00,10,-12,10,0.00
2013-12-30,56.3,45.3,42.1,49.1,36.9,34.5,79,72,67,0.00,40.00,15,-6,15,0.00
2013-12-31,50.7,46.9,40.5,41.0,37.2,33.1,76,69,62,0.00,40.00,9,-12,12,0.00
2014-1-1,66.9,58.8,48.0,58.3,53.5,41.0,93,83,74,0.00,40.00,13,-12,13,0.00
2014-1-2,61.2,48.9,39.9,59.7,33.0,25.9,95,56,35,0.00,40.00,27,-10,28,0.00